Regional Weather Roundup
Issued by NWS

Home | Current Version | Previous Version | Text Only | Print | Product List | Glossary Off
Versions: 1 2 3 4 5 6 7 8 9 10 11 12 13 14 15 16 17 18 19 20 21 22 23 24 25 26 27 28 29 30 31 32 33 34 35 36 37 38 39 40 41 42 43 44 45 46 47 48 49 50

039
ASUS45 KTFX 231310
RWRMT
MONTANA REGIONAL WEATHER ROUNDUP
NATIONAL WEATHER SERVICE GREAT FALLS MT
700 AM MDT SAT SEP 23 2017

NOTE: "FAIR" INDICATES FEW OR NO CLOUDS BELOW 12000 FEET WITH NO
SIGNIFICANT WEATHER AND/OR OBSTRUCTIONS TO VISIBILITY.

MTZ001>007-043-231400-
WEST OF THE DIVIDE

CITY           SKY/WX    TMP DP  RH WIND       PRES   REMARKS
KALISPELL      CLOUDY    42  37  82 CALM      30.06R
MISSOULA       CLOUDY    32  31  96 CALM      30.10R
BUTTE          CLOUDY    33  31  92 CALM      30.06R
MULLAN PASS    CLOUDY    31  28  89 CALM      30.03R
ANACONDA         N/A     34  30  86 CALM      30.07R
DEER LODGE       N/A     34  32  93 CALM      30.09S
EUREKA           N/A     43  34  70 CALM      30.04S
HAMILTON         N/A     32  30  93 CALM      30.10R
LIBBY            N/A     39  37  93 CALM      30.04S
$$

MTZ008-052>055-231400-
SOUTHWEST MONTANA

CITY           SKY/WX    TMP DP  RH WIND       PRES   REMARKS
BOZEMAN        CLOUDY    37  36  96 W3        30.07R
DILLON         CLOUDY    36  32  85 CALM      30.05R
W YELLOWSTONE  CLEAR     28  28 100 E6        30.03S WCI  22
ENNIS          CLOUDY    34  34 100 CALM      30.09S
THREE FORKS      N/A     38  35  89 CALM      30.06R
TWIN BRIDGES     N/A     37  31  79 CALM      30.04
$$

MTZ009-010-012-014-046-048-049-054-231400-
EAST SLOPES AND CENTRAL MONTANA

CITY           SKY/WX    TMP DP  RH WIND       PRES   REMARKS
CUT BANK       FOG       30  30 100 S5        30.05R VSB 1/4
GREAT FALLS    PTCLDY    31  30  96 CALM      30.06S FOG
MALMSTROM AFB  CLOUDY    37  35  94 SE5       30.08R
HELENA         CLOUDY    38  33  82 CALM      30.07S
BOWMANS CRNR   MOCLDY    31  32 100 S7        30.03S FOG     WCI  25
CHOTEAU          N/A     32  32 100 CALM      30.07S
FAIRFIELD      FOG       33  31  96 S5        30.05S VSB 1/8
POWER          CLOUDY    34  34  99 S9        30.06R WCI  27
RAYNESFORD     CLOUDY    37  35  94 E8        30.07R WCI  30
ULM              N/A     33  33 100 E6        30.06S WCI  27
$$

MTZ011-013-016-021-045-047-050-051-231400-
NORTH CENTRAL MONTANA

CITY           SKY/WX    TMP DP  RH WIND       PRES   REMARKS
HAVRE          CLOUDY    43  39  86 E3        30.09R
LEWISTOWN      LGT SNOW  33  33 100 E5        30.08R FOG
N BAR RANCH    CLOUDY    36  34  93 CALM      30.10S
CHINOOK          N/A     43  39  87 CALM      30.10R
DENTON           N/A     39  38  97 NE3       30.05S
GEYSER         MOCLDY    36  37 100 E3        30.07S FOG
JUDITH GAP     FOG       32  31  99 S8        30.06S VSB 1/2 WCI  25
WINIFRED       LGT RAIN  39 N/A N/A SE8       30.08R
$$

MTZ017>020-022>027-061-062-231400-
NORTHEAST MONTANA

CITY           SKY/WX    TMP DP  RH WIND       PRES   REMARKS
GLASGOW        CLOUDY    43  41  93 SE7       30.11R
JORDAN           N/A     43  40  89 CALM      30.11R
SIDNEY         CLOUDY    43  40  89 CALM      30.15R
WOLF POINT     CLOUDY    41  38  89 E5        30.14R
MALTA          CLOUDY    43  41  93 CALM      30.12R
POPLAR           N/A     37  36  93 CALM      30.14F
$$

MTZ028>42-056>058-231400-
SOUTHCENTRAL AND SOUTHEAST MONTANA

CITY           SKY/WX    TMP DP  RH WIND       PRES   REMARKS
BAKER          CLOUDY    41  37  86 NE7       30.09F
BILLINGS       CLOUDY    39  38  96 NE8       30.08R
LIVINGSTON     CLOUDY    35  32  88 SW5       30.07R
MILES CITY     CLOUDY    43  38  82 NE7       30.10S
BIG TIMBER     CLOUDY    34  34 100 CALM      30.10S
HARLOWTON      LGT RAIN  33  33  99 MISG      30.08R
LAUREL           N/A     39  39 100 NE7       30.09R
$$

REGIONAL REPORTS...DAKOTAS

CITY           SKY/WX    TMP DP  RH WIND       PRES   REMARKS
WILLISTON      CLOUDY    45  41  86 CALM      30.14R
MINOT          CLOUDY    47  45  93 NW10      30.07R
BEACH          CLOUDY    41  39  93 E6        30.13F
CROSBY         CLOUDY    43  43 100 NW6       30.13R
TIOGA          CLOUDY    43  43 100 N5        30.12R
WATFORD CITY   CLOUDY    43  43 100 W6        30.13R
BISMARCK       CLOUDY    49  47  93 NW7       30.07R
GRAND FORKS    CLOUDY    51  49  92 NW9       29.99R
FARGO          CLOUDY    52  49  89 N16       29.98R
BUFFALO SD       N/A     43  40  89 NE7       30.01F
RAPID CITY     CLOUDY    43  41  93 N13       30.05S
$$

REGIONAL REPORTS...WYOMING/IDAHO/WASHINGTON

CITY           SKY/WX    TMP DP  RH WIND       PRES   REMARKS
GILLETTE       CLOUDY    40  37  89 N7        30.05R
SHERIDAN       LGT RAIN  42  41  96 CALM      30.05S
BUFFALO WY     CLOUDY    38  35  89 SE6       30.06S
CODY           CLOUDY    36  35  96 NE6       30.06R FOG     WCI  31
IDAHO FALLS    CLEAR     28  28 100 CALM      30.04R
SALMON         CLOUDY    38  32  79 CALM      30.07R
BOISE          CLEAR     36  34  92 SW3       30.04R
SPOKANE        LGT RAIN  45  41  86 S6        30.05R
$$

REGIONAL REPORTS...ALBERTA

CITY           SKY/WX    TMP DP  RH WIND       PRES   REMARKS
EDMONTON       PTCLDY    37  36  93 SE3       30.04S
CALGARY        MOCLDY    36  32  87 S6        30.02R WCI  31
LETHBRIDGE     MOCLDY    37  34  87 SE5       30.03S
MEDICINE HAT   CLOUDY    41  37  87 SE2       30.07R
$$

REGIONAL REPORTS...SASKATCHEWAN

CITY           SKY/WX    TMP DP  RH WIND       PRES   REMARKS
SWIFT CURRENT    N/A     37  32  81 SW7       30.09R
REGINA         CLOUDY    41  39  93 CALM      30.12R
SASKATOON      CLOUDY    41  39  93 S2        30.12R
$$




USA.gov is the U.S. government's official web portal to all federal, state and local government web resources and services.